Current Weather Conditions: station 42043

sailwx.info

Wind from 080 at 11 knots gusting 15

Water temperature 29.9° C

Last reported at 2020-Sep-18 05:00 UTC.
Time now 2020-Sep-18 07:16 UTC

Location: N 29°00' W 094°54'.
View on Google Maps.

See reports from other nearby stations

  
Tides and Currents Weather Stations Pressure Air Temp Water Temp Dewpoint Dewpoint Depression Visibility Wind Speed Wind Dir Waves Ship Positions
date/time (UTC)wind fromknots sea level pressurealtimeterstation pressurevisibilityair tempwater tempwave heightnotes
2020-Sep-18 05:00 080 11 gusting 15 29.9
2020-Sep-18 04:00 080 11 gusting 15 29.9
2020-Sep-17 23:00 060 5 gusting 7 30.0
2020-Sep-17 22:00 070 5 gusting 9 30.0
2020-Sep-17 21:00 080 7 gusting 9 30.1
2020-Sep-17 20:00 050 5 gusting 7 30.0
2020-Sep-17 19:00 080 5 gusting 7 30.0
2020-Sep-17 18:00 090 7 gusting 11 30.0
2020-Sep-17 17:00 080 9 gusting 11 30.0
2020-Sep-17 16:00 070 9 gusting 11 30.0
2020-Sep-17 15:00 060 11 gusting 13 30.0
2020-Sep-17 14:00 060 11 gusting 13 30.0
2020-Sep-17 13:00 060 9 gusting 11 30.0
2020-Sep-17 12:00 060 9 gusting 11 30.1
2020-Sep-17 11:00 070 9 gusting 13 30.1
2020-Sep-17 10:00 070 11 gusting 13 30.1
2020-Sep-17 09:00 070 11 gusting 13 30.1
2020-Sep-17 08:00 070 11 gusting 13 30.2
2020-Sep-17 07:00 070 11 gusting 15 30.1
2020-Sep-17 06:00 060 11 gusting 15 30.2
2020-Sep-17 05:00 060 11 gusting 15 30.3
2020-Sep-17 04:00 360 7 gusting 9 30.4
2020-Sep-16 23:00 230 3 gusting 3 30.7
2020-Sep-16 22:00 190 3 gusting 5 30.4
2020-Sep-16 21:00 140 3 gusting 5 30.4
2020-Sep-16 20:00 110 3 gusting 3 30.2
2020-Sep-16 19:00 080 3 gusting 5 30.3
2020-Sep-16 18:00 060 5 gusting 7 30.1
2020-Sep-16 17:00 060 7 gusting 9 30.1
2020-Sep-16 16:00 040 7 gusting 11 29.9
2020-Sep-16 15:00 040 7 gusting 11 29.9
2020-Sep-16 14:00 040 9 gusting 11 29.9
2020-Sep-16 13:00 050 7 gusting 9 29.9
2020-Sep-16 12:00 060 7 gusting 11 30.0
2020-Sep-16 11:00 060 9 gusting 11 30.0
2020-Sep-16 10:00 070 11 gusting 13 30.0
2020-Sep-16 09:00 070 11 gusting 13 30.0
2020-Sep-16 08:00 070 11 gusting 15 30.1
2020-Sep-16 07:00 070 11 gusting 13 30.1